Home > Weather > Murau > Past weeks

Flag for Austria Past Weather in Murau, Styria, Austria — Yesterday and Last 2 Weeks

Now
81 °F

Thunderstorms. Scattered clouds.


Feels Like: 82 °F
Forecast: 59 / 73 °F
Wind: 9 mph from East

Location: Zeltweg

Current Time: Jun 25, 2016 at 4:09:58 PM

Latest Report: Jun 25, 2016 at 3:20 PM


Visibility: 9 mi

Pressure: 29.95 "Hg (27.19 "Hg at 848m altitude)

Humidity: 54%

Dew Point: 63 °F

Location of MurauLocation

Past Weather in Murau — Graph

°F

Murau Temperature Yesterday

Maximum temperature yesterday: 86 °F (at 2:50 PM)
Minimum temperature yesterday: 61 °F (at 5:50 AM)
Average temperature yesterday: 78 °F

High & Low Weather Summary for the Past Weeks

 TemperatureHumidityPressure
High86 °F (Jun 24, 2:50 PM)100% (Jun 10, 10:50 PM)30.36 "Hg (Jun 10, 10:50 PM)
Low48 °F (Jun 21, 4:50 AM)31% (Jun 17, 12:50 PM)29.56 "Hg (Jun 15, 4:50 AM)
Average65 °F69%29.96 "Hg
* Reported Jun 10 2:20 PM — Jun 25 2:50 PM, Murau, Weather by CustomWeather, © 2016

Note: Actual official high and low records may vary slightly from our data, if they occured in-between our weather recording intervals... More about our weather records

Advertising

Murau Weather History for the Previous 24 Hours

Scroll right to see more
 ConditionsComfort  
Time TempWeatherWind HumidityBarometerVisibility
2:50 PM
Sat, Jun 25
81 °FThunderstorms. Scattered clouds.10 mph51%29.95 "Hg9 mi
2:20 PM81 °FThunderstorms. Scattered clouds.13 mph58%29.95 "Hg9 mi
1:50 PM84 °FScattered clouds.10 mph51%29.95 "Hg9 mi
1:20 PM82 °FScattered clouds.10 mph55%29.98 "Hg9 mi
12:50 PM82 °FThunderstorms. Scattered clouds.8 mph55%29.98 "Hg9 mi
12:20 PM82 °FThunderstorms. Scattered clouds.9 mph55%29.98 "Hg12 mi
11:50 AM81 °FScattered clouds.5 mph58%29.98 "Hg12 mi
11:20 AM79 °FScattered clouds.1 mph61%30.01 "Hg12 mi
10:50 AM77 °FScattered clouds.2 mph69%30.01 "Hg12 mi
10:20 AM77 °FPassing clouds.2 mph69%30.01 "Hg9 mi
9:50 AM75 °FPassing clouds.1 mph69%30.01 "Hg9 mi
9:20 AM72 °FPassing clouds.2 mph78%30.01 "Hg9 mi
8:50 AM70 °FPassing clouds.1 mph83%30.01 "Hg9 mi
7:50 AM68 °FPassing clouds.1 mph83%30.01 "Hg12 mi
6:50 AM64 °FPassing clouds.1 mph94%30.01 "Hg12 mi
5:50 AM63 °FPassing clouds.3 mph94%30.04 "Hg16 mi
10:50 PM
Fri, Jun 24
70 °FPassing clouds.5 mph78%30.09 "Hg12 mi
9:50 PM75 °FPartly sunny.3 mph65%30.09 "Hg12 mi
8:50 PM77 °FPartly sunny.3 mph61%30.09 "Hg16 mi
7:50 PM79 °FPassing clouds.7 mph54%30.07 "Hg16 mi
6:50 PM82 °FPassing clouds.7 mph51%30.07 "Hg16 mi
5:50 PM82 °FScattered clouds.12 mph48%30.07 "Hg16 mi
4:50 PM84 °FPassing clouds.9 mph45%30.07 "Hg16 mi
4:20 PM86 °FPassing clouds.7 mph46%30.07 "Hg16 mi
Weather by CustomWeather, © 2016

See weather overviewHow to use our weather pages